^^
Station Historical Data
Daily Summary for April 9, 2019 Units:  Metric    English   Both
« Previous Day
Next Day »
Daily Weekly Monthly Yearly Custom
  High: Low: Average:
Temperature: 6.8 °C -2.4 °C 2.5 °C
Dew Point: 0.2 °C -5.3 °C -2.1 °C
Humidity: 89% 49% 72%
Wind Speed: 32.2km/h 1.6km/h 14.2km/h
Wind Gust: 38.6km/h - -
Wind- - SE
Pressure: 1017.5 hPa 1010.7 hPa -
Precipitation: 0 mm    
Historical Graphs
 
 
Tabular Data for April 9, 2019
Time Temperature Dew Point Pressure Wind Wind Speed Wind Gust Humidity Rainfall Rate (Hourly) solar Conditions
00:04 6.8 °C -3.2 °C 1011.7 hPa NW 6.4 km/h 6.4 km/h 49% 0 mm 0.00 W/m2
00:09 6.7 °C -3.3 °C 1011.7 hPa WNW 6.4 km/h 6.4 km/h 49% 0 mm 0.00 W/m2
00:14 6.5 °C -3.2 °C 1011.7 hPa WNW 6.4 km/h 8 km/h 50% 0 mm 0.00 W/m2
00:19 6.2 °C -3.4 °C 1011.7 hPa West 6.4 km/h 8 km/h 50% 0 mm 0.00 W/m2
00:24 5.9 °C -3.4 °C 1011.7 hPa West 4.8 km/h 8 km/h 51% 0 mm 0.00 W/m2
00:29 5.7 °C -3.4 °C 1011.7 hPa West 3.2 km/h 8 km/h 52% 0 mm 0.00 W/m2
00:34 5.6 °C -3.3 °C 1011.4 hPa West 4.8 km/h 6.4 km/h 53% 0 mm 0.00 W/m2
00:39 5.4 °C -3.4 °C 1011.4 hPa West 3.2 km/h 6.4 km/h 53% 0 mm 0.00 W/m2
00:44 5.3 °C -3.5 °C 1011.7 hPa West 4.8 km/h 4.8 km/h 53% 0 mm 0.00 W/m2
00:49 5.3 °C -3.3 °C 1011.7 hPa WSW 6.4 km/h 6.4 km/h 54% 0 mm 0.00 W/m2
00:54 5.2 °C -3.4 °C 1011.7 hPa WSW 6.4 km/h 6.4 km/h 54% 0 mm 0.00 W/m2
00:59 5.1 °C -3.5 °C 1011.7 hPa WSW 6.4 km/h 6.4 km/h 54% 0 mm 0.00 W/m2
01:04 4.9 °C -3.3 °C 1011.7 hPa WSW 4.8 km/h 6.4 km/h 55% 0 mm 0.00 W/m2
01:09 4.9 °C -3.3 °C 1011.7 hPa WSW 4.8 km/h 6.4 km/h 55% 0 mm 0.00 W/m2
01:14 5.1 °C -3.3 °C 1011.7 hPa WSW 4.8 km/h 4.8 km/h 55% 0 mm 0.00 W/m2
01:19 5.2 °C -3.2 °C 1011.7 hPa West 6.4 km/h 6.4 km/h 55% 0 mm 0.00 W/m2
01:24 5.2 °C -3.4 °C 1011.7 hPa West 4.8 km/h 6.4 km/h 54% 0 mm 0.00 W/m2
01:29 5.2 °C -3.4 °C 1011.7 hPa West 3.2 km/h 6.4 km/h 54% 0 mm 0.00 W/m2
01:34 5 °C -3.3 °C 1011.7 hPa West 3.2 km/h 4.8 km/h 55% 0 mm 0.00 W/m2
01:39 4.9 °C -3.3 °C 1011.7 hPa West 4.8 km/h 4.8 km/h 55% 0 mm 0.00 W/m2
01:44 4.9 °C -3.2 °C 1011.7 hPa West 4.8 km/h 4.8 km/h 56% 0 mm 0.00 W/m2
01:49 4.8 °C -3.2 °C 1011.7 hPa West 3.2 km/h 4.8 km/h 56% 0 mm 0.00 W/m2
01:54 4.8 °C -3.2 °C 1011.7 hPa West 3.2 km/h 4.8 km/h 56% 0 mm 0.00 W/m2
01:59 4.9 °C -3.2 °C 1011.7 hPa West 4.8 km/h 4.8 km/h 56% 0 mm 0.00 W/m2
02:04 5.1 °C -3 °C 1011.7 hPa West 4.8 km/h 4.8 km/h 56% 0 mm 0.00 W/m2
02:09 5.1 °C -3 °C 1011.7 hPa West 3.2 km/h 4.8 km/h 56% 0 mm 0.00 W/m2
02:14 5.1 °C -3.2 °C 1011.7 hPa West 4.8 km/h 6.4 km/h 55% 0 mm 0.00 W/m2
02:19 5.1 °C -3 °C 1011.7 hPa West 4.8 km/h 6.4 km/h 56% 0 mm 0.00 W/m2
02:24 5 °C -3.1 °C 1011.4 hPa West 4.8 km/h 4.8 km/h 56% 0 mm 0.00 W/m2
02:29 4.9 °C -3.1 °C 1011.7 hPa West 3.2 km/h 4.8 km/h 56% 0 mm 0.00 W/m2
02:34 4.9 °C -3.1 °C 1011.4 hPa West 3.2 km/h 4.8 km/h 56% 0 mm 0.00 W/m2
02:39 4.8 °C -3.3 °C 1011.4 hPa West 3.2 km/h 4.8 km/h 56% 0 mm 0.00 W/m2
02:44 4.6 °C -3.2 °C 1011.4 hPa West 3.2 km/h 4.8 km/h 57% 0 mm 0.00 W/m2
02:49 4.3 °C -3.3 °C 1011.4 hPa West 4.8 km/h 4.8 km/h 58% 0 mm 0.00 W/m2
02:54 4.1 °C -3.5 °C 1011.4 hPa West 4.8 km/h 6.4 km/h 58% 0 mm 0.00 W/m2
02:59 3.9 °C -3.3 °C 1011.4 hPa West 6.4 km/h 6.4 km/h 59% 0 mm 0.00 W/m2
03:04 3.9 °C -3.3 °C 1011.4 hPa West 4.8 km/h 6.4 km/h 59% 0 mm 0.00 W/m2
03:09 4 °C -3.1 °C 1011.4 hPa West 4.8 km/h 6.4 km/h 60% 0 mm 0.00 W/m2
03:14 3.9 °C -3.1 °C 1011.4 hPa West 4.8 km/h 6.4 km/h 60% 0 mm 0.00 W/m2
03:19 3.9 °C -3.2 °C 1011.4 hPa WNW 6.4 km/h 6.4 km/h 60% 0 mm 0.00 W/m2
03:24 3.8 °C -3 °C 1011.4 hPa WNW 4.8 km/h 6.4 km/h 61% 0 mm 0.00 W/m2
03:29 3.9 °C -2.9 °C 1011.4 hPa WNW 4.8 km/h 6.4 km/h 61% 0 mm 0.00 W/m2
03:34 3.9 °C -2.9 °C 1011.4 hPa WNW 4.8 km/h 6.4 km/h 61% 0 mm 0.00 W/m2
03:39 4.1 °C -3 °C 1011.4 hPa WNW 6.4 km/h 6.4 km/h 60% 0 mm 0.00 W/m2
03:44 4.1 °C -3 °C 1011.4 hPa WNW 4.8 km/h 6.4 km/h 60% 0 mm 0.00 W/m2
03:49 4.1 °C -3 °C 1011.4 hPa WNW 6.4 km/h 6.4 km/h 60% 0 mm 0.00 W/m2
03:54 4 °C -2.8 °C 1011.4 hPa NW 6.4 km/h 6.4 km/h 61% 0 mm 0.00 W/m2
03:59 3.9 °C -2.9 °C 1011.4 hPa NW 4.8 km/h 8 km/h 61% 0 mm 0.00 W/m2
04:04 3.7 °C -2.9 °C 1011.4 hPa NW 4.8 km/h 8 km/h 62% 0 mm 0.00 W/m2
04:09 3.6 °C -3 °C 1011.4 hPa NW 4.8 km/h 8 km/h 62% 0 mm 0.00 W/m2
04:14 3.5 °C -2.9 °C 1011.4 hPa NNW 4.8 km/h 8 km/h 63% 0 mm 0.00 W/m2
04:19 3.3 °C -3.1 °C 1011.4 hPa NNW 4.8 km/h 8 km/h 63% 0 mm 0.00 W/m2
04:24 3.3 °C -2.9 °C 1011.1 hPa NNW 4.8 km/h 6.4 km/h 64% 0 mm 0.00 W/m2
04:29 3.3 °C -2.9 °C 1011.4 hPa NNW 3.2 km/h 6.4 km/h 64% 0 mm 0.00 W/m2
04:34 3.4 °C -3 °C 1011.1 hPa NNW 4.8 km/h 4.8 km/h 63% 0 mm 0.00 W/m2
04:39 3.8 °C -2.8 °C 1011.1 hPa NW 4.8 km/h 4.8 km/h 62% 0 mm 0.00 W/m2
04:44 4.1 °C -2.8 °C 1011.1 hPa NW 4.8 km/h 6.4 km/h 61% 0 mm 0.00 W/m2
04:49 4.1 °C -2.8 °C 1011.1 hPa NW 4.8 km/h 8 km/h 61% 0 mm 0.00 W/m2
04:54 4 °C -2.8 °C 1011.1 hPa NW 3.2 km/h 8 km/h 61% 0 mm 0.00 W/m2
04:59 3.8 °C -2.8 °C 1011.1 hPa NW 3.2 km/h 6.4 km/h 62% 0 mm 0.00 W/m2
05:04 3.5 °C -3.1 °C 1011.1 hPa NW 3.2 km/h 4.8 km/h 62% 0 mm 0.00 W/m2
05:09 2.9 °C -3.4 °C 1011.1 hPa NW 1.6 km/h 4.8 km/h 63% 0 mm 0.00 W/m2
05:14 2.4 °C -3.3 °C 1011.1 hPa NW 1.6 km/h 4.8 km/h 66% 0 mm 0.00 W/m2
05:19 2.2 °C -3.3 °C 1011.1 hPa NW 1.6 km/h 3.2 km/h 67% 0 mm 0.00 W/m2
05:24 2.1 °C -3.2 °C 1011.1 hPa NW 3.2 km/h 4.8 km/h 68% 0 mm 0.00 W/m2
05:29 2.1 °C -3.2 °C 1011.1 hPa WNW 4.8 km/h 6.4 km/h 68% 0 mm 0.00 W/m2
05:34 2.1 °C -3.2 °C 1011.1 hPa WNW 4.8 km/h 6.4 km/h 68% 0 mm 0.00 W/m2
05:39 2.2 °C -3.1 °C 1011.1 hPa WNW 6.4 km/h 6.4 km/h 68% 0 mm 0.00 W/m2
05:44 2.3 °C -3 °C 1011.1 hPa WNW 6.4 km/h 6.4 km/h 68% 0 mm 0.00 W/m2
05:49 2.4 °C -3.1 °C 1011.1 hPa WNW 4.8 km/h 6.4 km/h 67% 0 mm 0.00 W/m2
05:54 2.4 °C -2.9 °C 1010.7 hPa NNW 4.8 km/h 6.4 km/h 68% 0 mm 0.00 W/m2
05:59 2.4 °C -2.7 °C 1011.1 hPa North 6.4 km/h 6.4 km/h 69% 0 mm 0.00 W/m2
06:04 2.3 °C -2.8 °C 1011.1 hPa North 6.4 km/h 6.4 km/h 69% 0 mm 0.00 W/m2
06:09 2.4 °C -2.7 °C 1011.1 hPa North 6.4 km/h 6.4 km/h 69% 0 mm 0.00 W/m2
06:14 2.4 °C -2.7 °C 1011.1 hPa North 4.8 km/h 6.4 km/h 69% 0 mm 0.00 W/m2
06:19 2.3 °C -2.6 °C 1011.4 hPa North 6.4 km/h 9.7 km/h 70% 0 mm 0.00 W/m2
06:24 2.3 °C -2.6 °C 1011.4 hPa North 6.4 km/h 9.7 km/h 70% 0 mm 0.00 W/m2
06:29 2.4 °C -2.6 °C 1011.4 hPa NNE 4.8 km/h 11.3 km/h 70% 0 mm 0.00 W/m2
06:34 2.4 °C -2.5 °C 1011.4 hPa NNE 8 km/h 11.3 km/h 70% 0 mm 0.00 W/m2
06:39 2.6 °C -2.4 °C 1011.4 hPa NE 9.7 km/h 12.9 km/h 70% 0 mm 0.00 W/m2
06:44 2.7 °C -2.4 °C 1011.4 hPa NE 6.4 km/h 14.5 km/h 69% 0 mm 0.00 W/m2
06:49 2.8 °C -2.3 °C 1011.4 hPa NE 8 km/h 14.5 km/h 69% 0 mm 0.00 W/m2
06:54 2.7 °C -2.4 °C 1011.4 hPa East 8 km/h 9.7 km/h 69% 0 mm 0.00 W/m2
06:59 2.3 °C -2.6 °C 1011.4 hPa East 8 km/h 12.9 km/h 70% 0 mm 5.00 W/m2
07:04 2.2 °C -2.5 °C 1011.4 hPa NE 9.7 km/h 12.9 km/h 71% 0 mm 7.00 W/m2
07:09 2.3 °C -2.4 °C 1011.4 hPa ENE 11.3 km/h 16.1 km/h 71% 0 mm 5.00 W/m2
07:14 2.4 °C -2.3 °C 1011.4 hPa East 4.8 km/h 16.1 km/h 71% 0 mm 5.00 W/m2
07:19 2.3 °C -2.4 °C 1011.4 hPa East 4.8 km/h 12.9 km/h 71% 0 mm 7.00 W/m2
07:24 2.1 °C -2.4 °C 1011.4 hPa East 3.2 km/h 9.7 km/h 72% 0 mm 11.00 W/m2
07:29 1.9 °C -2.4 °C 1011.4 hPa ESE 4.8 km/h 8 km/h 73% 0 mm 14.00 W/m2
07:34 1.8 °C -2.3 °C 1011.4 hPa SE 6.4 km/h 8 km/h 74% 0 mm 23.00 W/m2
07:39 1.7 °C -2.2 °C 1011.4 hPa East 8 km/h 11.3 km/h 75% 0 mm 33.00 W/m2
07:44 1.9 °C -2.1 °C 1011.4 hPa East 3.2 km/h 11.3 km/h 75% 0 mm 33.00 W/m2
07:49 2 °C -2.2 °C 1011.4 hPa East 4.8 km/h 8 km/h 74% 0 mm 35.00 W/m2
07:54 2.1 °C -2.1 °C 1011.4 hPa East 4.8 km/h 8 km/h 74% 0 mm 42.00 W/m2
07:59 2.2 °C -1.9 °C 1011.4 hPa East 4.8 km/h 9.7 km/h 74% 0 mm 33.00 W/m2
08:04 2.4 °C -1.7 °C 1011.7 hPa East 3.2 km/h 9.7 km/h 74% 0 mm 49.00 W/m2
08:09 2.6 °C -1.4 °C 1011.7 hPa East 1.6 km/h 9.7 km/h 75% 0 mm 62.00 W/m2
08:14 2.7 °C -1.3 °C 1011.7 hPa East 3.2 km/h 4.8 km/h 75% 0 mm 70.00 W/m2
08:19 2.8 °C -1.4 °C 1011.7 hPa NE 9.7 km/h 11.3 km/h 74% 0 mm 62.00 W/m2
08:24 2.9 °C -1.2 °C 1011.7 hPa NE 8 km/h 14.5 km/h 74% 0 mm 63.00 W/m2
08:29 3.3 °C -1.1 °C 1012.1 hPa NE 11.3 km/h 16.1 km/h 73% 0 mm 65.00 W/m2
08:34 3.7 °C -0.9 °C 1012.1 hPa NE 9.7 km/h 19.3 km/h 72% 0 mm 81.00 W/m2
08:39 3.7 °C -1.1 °C 1012.1 hPa ENE 19.3 km/h 22.5 km/h 71% 0 mm 98.00 W/m2
08:44 3.7 °C -1.1 °C 1012.1 hPa East 16.1 km/h 22.5 km/h 71% 0 mm 109.00 W/m2
08:49 3.6 °C -0.9 °C 1012.1 hPa ENE 19.3 km/h 22.5 km/h 72% 0 mm 135.00 W/m2
08:54 3.6 °C -0.8 °C 1012.1 hPa ENE 20.9 km/h 25.7 km/h 73% 0 mm 153.00 W/m2
08:59 3.6 °C -0.8 °C 1012.4 hPa ENE 11.3 km/h 25.7 km/h 73% 0 mm 162.00 W/m2
09:04 3.4 °C -0.9 °C 1012.4 hPa NE 17.7 km/h 27.4 km/h 73% 0 mm 127.00 W/m2
09:09 3.3 °C -0.9 °C 1012.4 hPa ENE 20.9 km/h 30.6 km/h 74% 0 mm 148.00 W/m2
09:14 3 °C -1 °C 1012.4 hPa ENE 24.1 km/h 33.8 km/h 75% 0 mm 141.00 W/m2
09:19 2.8 °C -0.8 °C 1012.4 hPa ENE 12.9 km/h 33.8 km/h 77% 0 mm 163.00 W/m2
09:24 2.6 °C -0.7 °C 1012.4 hPa NE 14.5 km/h 29 km/h 79% 0 mm 190.00 W/m2
09:29 2.5 °C -0.4 °C 1012.4 hPa ENE 27.4 km/h 29 km/h 81% 0 mm 186.00 W/m2
09:34 2.4 °C -0.4 °C 1012.4 hPa ENE 12.9 km/h 29 km/h 82% 0 mm 183.00 W/m2
09:39 2.2 °C -0.6 °C 1012.8 hPa ENE 19.3 km/h 29 km/h 82% 0 mm 213.00 W/m2
09:44 1.9 °C -0.7 °C 1012.8 hPa ENE 19.3 km/h 25.7 km/h 83% 0 mm 186.00 W/m2
09:49 1.4 °C -1 °C 1012.8 hPa ENE 19.3 km/h 25.7 km/h 84% 0 mm 162.00 W/m2
09:54 1.2 °C -1 °C 1012.8 hPa ENE 17.7 km/h 27.4 km/h 85% 0 mm 202.00 W/m2
09:59 1.2 °C -0.9 °C 1012.8 hPa NE 12.9 km/h 27.4 km/h 86% 0 mm 227.00 W/m2
10:04 1.3 °C -0.7 °C 1013.1 hPa ENE 16.1 km/h 27.4 km/h 87% 0 mm 192.00 W/m2
10:09 1.2 °C -0.7 °C 1013.1 hPa ENE 24.1 km/h 27.4 km/h 87% 0 mm 153.00 W/m2
10:14 1.2 °C -0.8 °C 1013.1 hPa ENE 19.3 km/h 27.4 km/h 87% 0 mm 128.00 W/m2
10:19 1.1 °C -0.7 °C 1013.1 hPa ENE 20.9 km/h 27.4 km/h 88% 0 mm 146.00 W/m2
10:24 0.9 °C -0.8 °C 1013.1 hPa ENE 19.3 km/h 32.2 km/h 88% 0 mm 146.00 W/m2
10:29 0.9 °C -0.7 °C 1013.1 hPa ENE 22.5 km/h 32.2 km/h 89% 0 mm 167.00 W/m2
10:34 1 °C -0.6 °C 1013.1 hPa East 22.5 km/h 30.6 km/h 89% 0 mm 167.00 W/m2
10:39 1 °C -0.6 °C 1013.1 hPa ENE 19.3 km/h 30.6 km/h 89% 0 mm 142.00 W/m2
10:44 1.1 °C -0.5 °C 1013.4 hPa East 16.1 km/h 29 km/h 89% 0 mm 162.00 W/m2
10:49 1.3 °C -0.3 °C 1013.4 hPa ENE 17.7 km/h 32.2 km/h 89% 0 mm 179.00 W/m2
10:54 1.3 °C -0.3 °C 1013.4 hPa ENE 16.1 km/h 32.2 km/h 89% 0 mm 190.00 W/m2
10:59 1.4 °C -0.2 °C 1013.4 hPa ENE 16.1 km/h 27.4 km/h 89% 0 mm 248.00 W/m2
11:04 1.5 °C -0.1 °C 1013.4 hPa ENE 19.3 km/h 35.4 km/h 89% 0 mm 302.00 W/m2
11:09 1.7 °C 0.1 °C 1013.4 hPa East 27.4 km/h 35.4 km/h 89% 0 mm 279.00 W/m2
11:14 1.9 °C 0.1 °C 1013.4 hPa East 32.2 km/h 32.2 km/h 88% 0 mm 299.00 W/m2
11:19 1.9 °C -0.1 °C 1013.4 hPa ENE 20.9 km/h 38.6 km/h 87% 0 mm 279.00 W/m2
11:24 1.8 °C -0.1 °C 1013.4 hPa ENE 24.1 km/h 38.6 km/h 87% 0 mm 258.00 W/m2
11:29 1.9 °C 0.2 °C 1013.4 hPa ENE 19.3 km/h 33.8 km/h 88% 0 mm 318.00 W/m2
11:34 2 °C 0.1 °C 1013.4 hPa ENE 24.1 km/h 38.6 km/h 87% 0 mm 332.00 W/m2
11:39 2.1 °C -0.1 °C 1013.4 hPa NE 17.7 km/h 38.6 km/h 86% 0 mm 332.00 W/m2
11:44 2.2 °C 0.1 °C 1013.1 hPa ENE 17.7 km/h 35.4 km/h 86% 0 mm 287.00 W/m2
11:49 2.3 °C 0.2 °C 1013.1 hPa ENE 16.1 km/h 32.2 km/h 86% 0 mm 311.00 W/m2
11:54 2.1 °C -0.2 °C 1013.1 hPa East 27.4 km/h 37 km/h 85% 0 mm 316.00 W/m2
11:59 2.2 °C 0.1 °C 1013.1 hPa East 25.7 km/h 37 km/h 86% 0 mm 359.00 W/m2
12:04 2.2 °C -0.1 °C 1013.4 hPa ENE 24.1 km/h 38.6 km/h 85% 0 mm 374.00 W/m2
12:09 2.3 °C 0 °C 1013.4 hPa ENE 29 km/h 38.6 km/h 85% 0 mm 410.00 W/m2
12:14 2.3 °C 0 °C 1013.4 hPa ENE 16.1 km/h 38.6 km/h 85% 0 mm 348.00 W/m2
12:19 2.4 °C 0.2 °C 1013.4 hPa NE 20.9 km/h 35.4 km/h 85% 0 mm 367.00 W/m2
12:24 2.5 °C 0.1 °C 1013.4 hPa ENE 24.1 km/h 35.4 km/h 84% 0 mm 360.00 W/m2
12:29 2.6 °C 0.1 °C 1013.4 hPa NE 29 km/h 35.4 km/h 84% 0 mm 309.00 W/m2
12:34 2.5 °C -0.1 °C 1013.4 hPa ENE 17.7 km/h 33.8 km/h 83% 0 mm 292.00 W/m2
12:39 2.3 °C -0.3 °C 1013.4 hPa NE 17.7 km/h 33.8 km/h 83% 0 mm 278.00 W/m2
12:44 2.3 °C -0.2 °C 1013.4 hPa ENE 22.5 km/h 33.8 km/h 84% 0 mm 267.00 W/m2
12:49 2.1 °C -0.6 °C 1013.4 hPa ENE 24.1 km/h 37 km/h 83% 0 mm 251.00 W/m2
12:54 2 °C -0.4 °C 1013.4 hPa ENE 16.1 km/h 37 km/h 84% 0 mm 244.00 W/m2
12:59 2 °C -0.4 °C 1013.4 hPa ENE 17.7 km/h 33.8 km/h 84% 0 mm 253.00 W/m2
13:04 2.1 °C -0.4 °C 1013.4 hPa ENE 25.7 km/h 33.8 km/h 84% 0 mm 267.00 W/m2
13:09 2 °C -0.6 °C 1013.8 hPa ENE 20.9 km/h 32.2 km/h 83% 0 mm 279.00 W/m2
13:14 1.8 °C -0.8 °C 1013.8 hPa East 25.7 km/h 30.6 km/h 83% 0 mm 313.00 W/m2
13:19 1.9 °C -0.5 °C 1013.8 hPa ENE 22.5 km/h 35.4 km/h 84% 0 mm 348.00 W/m2
13:24 1.9 °C -0.7 °C 1013.8 hPa East 22.5 km/h 35.4 km/h 83% 0 mm 445.00 W/m2
13:29 2.1 °C -0.3 °C 1013.8 hPa NE 17.7 km/h 35.4 km/h 84% 0 mm 439.00 W/m2
13:34 2.3 °C -0.4 °C 1014.1 hPa ENE 14.5 km/h 32.2 km/h 82% 0 mm 476.00 W/m2
13:39 2.3 °C -0.6 °C 1013.8 hPa East 27.4 km/h 32.2 km/h 81% 0 mm 654.00 W/m2
13:44 2.7 °C -0.1 °C 1013.8 hPa ENE 16.1 km/h 33.8 km/h 82% 0 mm 671.00 W/m2
13:49 2.6 °C -0.7 °C 1013.4 hPa ENE 30.6 km/h 35.4 km/h 79% 0 mm 689.00 W/m2
13:54 2.9 °C -0.2 °C 1013.4 hPa ENE 27.4 km/h 35.4 km/h 80% 0 mm 682.00 W/m2
13:59 3.2 °C -0.4 °C 1013.8 hPa ENE 24.1 km/h 35.4 km/h 77% 0 mm 800.00 W/m2
14:04 3.3 °C -0.2 °C 1013.4 hPa East 25.7 km/h 35.4 km/h 78% 0 mm 494.00 W/m2
14:09 3.6 °C -0.3 °C 1013.4 hPa East 24.1 km/h 33.8 km/h 76% 0 mm 450.00 W/m2
14:14 3.2 °C -0.8 °C 1013.4 hPa NE 17.7 km/h 33.8 km/h 75% 0 mm 452.00 W/m2
14:19 3.3 °C -0.6 °C 1013.4 hPa ENE 24.1 km/h 33.8 km/h 76% 0 mm 510.00 W/m2
14:24 3.4 °C -0.4 °C 1013.4 hPa ENE 27.4 km/h 33.8 km/h 76% 0 mm 541.00 W/m2
14:29 3.4 °C -0.4 °C 1013.4 hPa ENE 22.5 km/h 32.2 km/h 76% 0 mm 454.00 W/m2
14:34 3.3 °C -0.6 °C 1013.4 hPa ENE 24.1 km/h 33.8 km/h 76% 0 mm 536.00 W/m2
14:39 3.4 °C -0.4 °C 1013.4 hPa East 16.1 km/h 35.4 km/h 76% 0 mm 482.00 W/m2
14:44 3.5 °C -0.3 °C 1013.4 hPa East 11.3 km/h 35.4 km/h 76% 0 mm 490.00 W/m2
14:49 3.6 °C -0.2 °C 1013.4 hPa East 17.7 km/h 35.4 km/h 76% 0 mm 548.00 W/m2
14:54 3.8 °C -0.2 °C 1013.4 hPa ENE 17.7 km/h 35.4 km/h 75% 0 mm 483.00 W/m2
14:59 3.7 °C -0.3 °C 1013.4 hPa ESE 27.4 km/h 33.8 km/h 75% 0 mm 457.00 W/m2
15:04 3.6 °C -0.8 °C 1013.4 hPa East 25.7 km/h 30.6 km/h 73% 0 mm 452.00 W/m2
15:09 3.6 °C -0.6 °C 1013.4 hPa East 24.1 km/h 33.8 km/h 74% 0 mm 471.00 W/m2
15:14 3.7 °C -0.5 °C 1013.4 hPa East 20.9 km/h 37 km/h 74% 0 mm 436.00 W/m2
15:19 3.8 °C -0.4 °C 1013.4 hPa East 14.5 km/h 37 km/h 74% 0 mm 434.00 W/m2
15:24 3.6 °C -0.7 °C 1013.4 hPa East 24.1 km/h 33.8 km/h 74% 0 mm 343.00 W/m2
15:29 3.7 °C -0.3 °C 1013.4 hPa East 14.5 km/h 33.8 km/h 75% 0 mm 367.00 W/m2
15:34 3.6 °C -0.8 °C 1013.4 hPa ENE 22.5 km/h 33.8 km/h 73% 0 mm 371.00 W/m2
15:39 3.3 °C -1.1 °C 1013.4 hPa ENE 29 km/h 38.6 km/h 73% 0 mm 432.00 W/m2
15:44 3.4 °C -0.8 °C 1013.4 hPa ENE 14.5 km/h 38.6 km/h 74% 0 mm 313.00 W/m2
15:49 3.6 °C -0.8 °C 1013.4 hPa ENE 17.7 km/h 37 km/h 73% 0 mm 338.00 W/m2
15:54 3.4 °C -0.8 °C 1013.4 hPa East 22.5 km/h 37 km/h 74% 0 mm 292.00 W/m2
15:59 3.5 °C -0.5 °C 1013.4 hPa ESE 14.5 km/h 35.4 km/h 75% 0 mm 301.00 W/m2
16:04 3.7 °C -0.6 °C 1013.4 hPa ENE 25.7 km/h 35.4 km/h 74% 0 mm 313.00 W/m2
16:09 3.2 °C -0.9 °C 1013.4 hPa ENE 20.9 km/h 32.2 km/h 74% 0 mm 339.00 W/m2
16:14 3.3 °C -0.7 °C 1013.4 hPa East 20.9 km/h 35.4 km/h 75% 0 mm 346.00 W/m2
16:19 3.2 °C -0.9 °C 1013.4 hPa East 11.3 km/h 35.4 km/h 74% 0 mm 403.00 W/m2
16:24 3.5 °C -0.7 °C 1013.4 hPa ENE 20.9 km/h 33.8 km/h 74% 0 mm 355.00 W/m2
16:29 3.6 °C -0.8 °C 1013.4 hPa East 20.9 km/h 29 km/h 73% 0 mm 287.00 W/m2
16:34 3.4 °C -0.9 °C 1013.8 hPa East 22.5 km/h 29 km/h 73% 0 mm 220.00 W/m2
16:39 3.3 °C -1.1 °C 1013.8 hPa East 11.3 km/h 29 km/h 73% 0 mm 186.00 W/m2
16:44 3.3 °C -1.1 °C 1013.8 hPa East 12.9 km/h 29 km/h 73% 0 mm 199.00 W/m2
16:49 3.2 °C -0.9 °C 1013.8 hPa ENE 14.5 km/h 29 km/h 74% 0 mm 220.00 W/m2
16:54 3.2 °C -0.9 °C 1013.8 hPa East 9.7 km/h 27.4 km/h 74% 0 mm 227.00 W/m2
16:59 3.3 °C -1.1 °C 1013.8 hPa East 20.9 km/h 30.6 km/h 73% 0 mm 221.00 W/m2
17:04 3.2 °C -1 °C 1013.8 hPa East 17.7 km/h 30.6 km/h 74% 0 mm 225.00 W/m2
17:09 3.2 °C -1.2 °C 1013.8 hPa ENE 17.7 km/h 30.6 km/h 73% 0 mm 243.00 W/m2
17:14 3.1 °C -1.1 °C 1013.8 hPa ENE 17.7 km/h 29 km/h 74% 0 mm 234.00 W/m2
17:19 3.1 °C -1.3 °C 1013.8 hPa ENE 17.7 km/h 29 km/h 73% 0 mm 216.00 W/m2
17:24 3.3 °C -0.9 °C 1013.8 hPa ENE 17.7 km/h 29 km/h 74% 0 mm 251.00 W/m2
17:29 3.2 °C -1.2 °C 1014.1 hPa ENE 17.7 km/h 29 km/h 73% 0 mm 257.00 W/m2
17:34 3.2 °C -1.3 °C 1014.1 hPa ENE 17.7 km/h 29 km/h 72% 0 mm 250.00 W/m2
17:39 3.3 °C -1.2 °C 1014.1 hPa ENE 17.7 km/h 29 km/h 72% 0 mm 250.00 W/m2
17:44 3.4 °C -1.2 °C 1014.1 hPa ENE 17.7 km/h 29 km/h 72% 0 mm 209.00 W/m2
17:49 3.2 °C -1.3 °C 1014.1 hPa ENE 17.7 km/h 29 km/h 72% 0 mm 179.00 W/m2
17:54 3.4 °C -1.2 °C 1014.1 hPa ENE 17.7 km/h 29 km/h 72% 0 mm 163.00 W/m2
17:59 3.3 °C -1.2 °C 1014.1 hPa ENE 17.7 km/h 29 km/h 72% 0 mm 142.00 W/m2
18:04 3.3 °C -1.4 °C 1014.1 hPa ENE 17.7 km/h 29 km/h 71% 0 mm 134.00 W/m2
18:09 3.3 °C -1.4 °C 1014.1 hPa ENE 17.7 km/h 29 km/h 71% 0 mm 127.00 W/m2
18:14 3.3 °C -1.4 °C 1014.1 hPa ENE 17.7 km/h 29 km/h 71% 0 mm 114.00 W/m2
18:19 3.3 °C -1.4 °C 1014.4 hPa ENE 17.7 km/h 29 km/h 71% 0 mm 109.00 W/m2
18:24 3.2 °C -1.6 °C 1014.4 hPa ENE 17.7 km/h 29 km/h 71% 0 mm 83.00 W/m2
18:29 3.1 °C -1.7 °C 1014.4 hPa ENE 17.7 km/h 29 km/h 71% 0 mm 67.00 W/m2
18:34 3.1 °C -1.5 °C 1014.4 hPa ENE 17.7 km/h 29 km/h 72% 0 mm 67.00 W/m2
18:39 3 °C -1.7 °C 1014.4 hPa ENE 17.7 km/h 29 km/h 71% 0 mm 65.00 W/m2
18:44 3 °C -1.7 °C 1014.4 hPa ENE 17.7 km/h 29 km/h 71% 0 mm 63.00 W/m2
18:49 3.1 °C -1.7 °C 1014.4 hPa ENE 17.7 km/h 29 km/h 71% 0 mm 63.00 W/m2
18:54 3.2 °C -1.8 °C 1014.4 hPa ENE 17.7 km/h 29 km/h 70% 0 mm 46.00 W/m2
18:59 3.1 °C -2.1 °C 1014.4 hPa ENE 17.7 km/h 29 km/h 69% 0 mm 44.00 W/m2
19:04 3 °C -2.1 °C 1014.4 hPa ENE 17.7 km/h 29 km/h 69% 0 mm 40.00 W/m2
19:09 2.9 °C -2.2 °C 1014.8 hPa ENE 17.7 km/h 29 km/h 69% 0 mm 35.00 W/m2
19:14 2.8 °C -2.2 °C 1014.8 hPa ENE 17.7 km/h 29 km/h 70% 0 mm 30.00 W/m2
19:19 2.7 °C -2.3 °C 1014.8 hPa ENE 17.7 km/h 29 km/h 70% 0 mm 25.00 W/m2
19:24 2.4 °C -2.5 °C 1014.8 hPa ENE 17.7 km/h 29 km/h 70% 0 mm 23.00 W/m2
19:29 2.3 °C -2.4 °C 1014.8 hPa ENE 17.7 km/h 29 km/h 71% 0 mm 21.00 W/m2
19:34 2.2 °C -2.6 °C 1014.8 hPa ENE 17.7 km/h 29 km/h 71% 0 mm 21.00 W/m2
19:39 2.1 °C -2.4 °C 1014.8 hPa ENE 17.7 km/h 29 km/h 72% 0 mm 16.00 W/m2
19:44 2 °C -2.5 °C 1014.8 hPa ENE 17.7 km/h 29 km/h 72% 0 mm 14.00 W/m2
19:49 1.9 °C -2.6 °C 1015.1 hPa ENE 17.7 km/h 29 km/h 72% 0 mm 14.00 W/m2
19:54 1.7 °C -2.8 °C 1015.1 hPa ENE 17.7 km/h 29 km/h 72% 0 mm 9.00 W/m2
19:59 1.5 °C -3 °C 1015.1 hPa NE 14.5 km/h 30.6 km/h 72% 0 mm 7.00 W/m2
20:04 1.4 °C -2.9 °C 1015.1 hPa ENE 19.3 km/h 30.6 km/h 73% 0 mm 5.00 W/m2
20:09 1.2 °C -3.1 °C 1015.1 hPa ENE 25.7 km/h 33.8 km/h 73% 0 mm 5.00 W/m2
20:14 1.1 °C -3.2 °C 1015.5 hPa East 16.1 km/h 33.8 km/h 73% 0 mm 5.00 W/m2
20:19 1 °C -3.3 °C 1015.5 hPa ENE 20.9 km/h 29 km/h 73% 0 mm 0.00 W/m2
20:24 0.9 °C -3.2 °C 1015.5 hPa ENE 25.7 km/h 27.4 km/h 74% 0 mm 0.00 W/m2
20:29 0.8 °C -3.3 °C 1015.5 hPa ENE 19.3 km/h 30.6 km/h 74% 0 mm 0.00 W/m2
20:34 0.7 °C -3.4 °C 1015.8 hPa NE 14.5 km/h 30.6 km/h 74% 0 mm 0.00 W/m2
20:39 0.6 °C -3.6 °C 1015.8 hPa ENE 11.3 km/h 32.2 km/h 74% 0 mm 0.00 W/m2
20:44 0.6 °C -3.4 °C 1015.8 hPa ENE 16.1 km/h 32.2 km/h 75% 0 mm 0.00 W/m2
20:49 0.5 °C -3.4 °C 1016.1 hPa ENE 12.9 km/h 24.1 km/h 75% 0 mm 0.00 W/m2
20:54 0.4 °C -3.6 °C 1016.1 hPa East 17.7 km/h 25.7 km/h 75% 0 mm 0.00 W/m2
20:59 0.3 °C -3.6 °C 1016.1 hPa ENE 8 km/h 25.7 km/h 75% 0 mm 0.00 W/m2
21:04 0.2 °C -3.7 °C 1016.1 hPa ENE 14.5 km/h 24.1 km/h 75% 0 mm 0.00 W/m2
21:09 0.2 °C -3.6 °C 1016.1 hPa ENE 20.9 km/h 24.1 km/h 76% 0 mm 0.00 W/m2
21:14 0.1 °C -3.6 °C 1016.1 hPa ENE 24.1 km/h 24.1 km/h 76% 0 mm 0.00 W/m2
21:19 0.1 °C -3.7 °C 1016.1 hPa NE 9.7 km/h 24.1 km/h 76% 0 mm 0.00 W/m2
21:24 0 °C -3.7 °C 1016.1 hPa ENE 22.5 km/h 24.1 km/h 76% 0 mm 0.00 W/m2
21:29 -0.1 °C -3.8 °C 1016.1 hPa ENE 14.5 km/h 25.7 km/h 76% 0 mm 0.00 W/m2
21:34 -0.2 °C -3.9 °C 1016.1 hPa ENE 17.7 km/h 25.7 km/h 76% 0 mm 0.00 W/m2
21:39 -0.3 °C -3.8 °C 1016.1 hPa NE 20.9 km/h 24.1 km/h 77% 0 mm 0.00 W/m2
21:44 -0.4 °C -3.9 °C 1016.5 hPa ENE 25.7 km/h 30.6 km/h 77% 0 mm 0.00 W/m2
21:49 -0.6 °C -4.1 °C 1016.5 hPa NE 11.3 km/h 30.6 km/h 77% 0 mm 0.00 W/m2
21:54 -0.7 °C -4.3 °C 1016.5 hPa NE 16.1 km/h 25.7 km/h 77% 0 mm 0.00 W/m2
21:59 -0.8 °C -4.1 °C 1016.5 hPa ENE 19.3 km/h 25.7 km/h 78% 0 mm 0.00 W/m2
22:04 -0.8 °C -4.2 °C 1016.8 hPa ENE 8 km/h 25.7 km/h 78% 0 mm 0.00 W/m2
22:09 -0.9 °C -4.2 °C 1016.8 hPa ENE 6.4 km/h 24.1 km/h 78% 0 mm 0.00 W/m2
22:14 -0.9 °C -4.4 °C 1016.8 hPa ENE 14.5 km/h 22.5 km/h 77% 0 mm 0.00 W/m2
22:19 -0.9 °C -4.4 °C 1016.8 hPa ENE 12.9 km/h 24.1 km/h 77% 0 mm 0.00 W/m2
22:24 -0.9 °C -4.3 °C 1016.8 hPa ENE 19.3 km/h 25.7 km/h 78% 0 mm 0.00 W/m2
22:29 -1 °C -4.3 °C 1016.8 hPa ENE 12.9 km/h 25.7 km/h 78% 0 mm 0.00 W/m2
22:34 -1.1 °C -4.4 °C 1016.8 hPa ENE 17.7 km/h 24.1 km/h 78% 0 mm 0.00 W/m2
22:39 -1.1 °C -4.4 °C 1016.8 hPa ENE 12.9 km/h 24.1 km/h 78% 0 mm 0.00 W/m2
22:44 -1.2 °C -4.6 °C 1016.8 hPa ENE 14.5 km/h 30.6 km/h 78% 0 mm 0.00 W/m2
22:49 -1.3 °C -4.6 °C 1016.8 hPa ENE 29 km/h 32.2 km/h 78% 0 mm 0.00 W/m2
22:54 -1.4 °C -4.7 °C 1017.2 hPa NE 11.3 km/h 32.2 km/h 78% 0 mm 0.00 W/m2
22:59 -1.4 °C -4.8 °C 1017.2 hPa ENE 20.9 km/h 30.6 km/h 78% 0 mm 0.00 W/m2
23:04 -1.5 °C -4.8 °C 1017.2 hPa NE 19.3 km/h 29 km/h 78% 0 mm 0.00 W/m2
23:09 -1.6 °C -4.9 °C 1017.2 hPa ENE 20.9 km/h 29 km/h 78% 0 mm 0.00 W/m2
23:14 -1.6 °C -4.8 °C 1017.2 hPa NE 19.3 km/h 29 km/h 79% 0 mm 0.00 W/m2
23:19 -1.7 °C -4.9 °C 1017.2 hPa ENE 20.9 km/h 29 km/h 79% 0 mm 0.00 W/m2
23:24 -1.8 °C -5 °C 1017.2 hPa NE 19.3 km/h 30.6 km/h 79% 0 mm 0.00 W/m2
23:29 -1.9 °C -4.9 °C 1017.2 hPa ENE 25.7 km/h 30.6 km/h 80% 0 mm 0.00 W/m2
23:34 -2 °C -5 °C 1017.2 hPa ENE 25.7 km/h 33.8 km/h 80% 0 mm 0.00 W/m2
23:39 -2.1 °C -5.1 °C 1017.2 hPa ENE 14.5 km/h 33.8 km/h 80% 0 mm 0.00 W/m2
23:44 -2.2 °C -5 °C 1017.5 hPa ENE 25.7 km/h 29 km/h 81% 0 mm 0.00 W/m2
23:49 -2.2 °C -5.1 °C 1017.5 hPa NE 19.3 km/h 29 km/h 81% 0 mm 0.00 W/m2
23:54 -2.3 °C -5.2 °C 1017.2 hPa ENE 19.3 km/h 32.2 km/h 81% 0 mm 0.00 W/m2
23:59 -2.4 °C -5.3 °C 1017.2 hPa NE 27.4 km/h 32.2 km/h 81% 0 mm 0.00 W/m2
Bismarck, North Dakota, USA
Compliments of Weather Underground - 4 mb